Location: Binningen
(47.7924°N, 8.7261°E)
Time: 18:37:17
(UTC+00:00)

Cosmos 2074 Rocket - Pass Details

Date: 17 May 2021
Orbit: 967 x 986 km, 82.9° (Epoch: 21 June)

Event Time Altitude Azimuth Distance (km) Brightness Sun altitude
Rises 20:13:08 0° 350° (N) 3,707 8.0 -10.6°
Reaches altitude 10° 20:15:40 10° 351° (N) 2,755 7.3 -10.9°
Maximum altitude 20:22:00 90° 292° (WNW) 993 4.1 -11.6°
Drops below altitude 10° 20:28:18 10° 173° (S) 2,732 5.9 -12.3°
Enters shadow 20:28:26 - 173° (S) 2,781 5.9 -12.3°
